RH
76 76 75 74 71 61 50 46 46 46 47 45 44 42 43 46 49 50 49 49 50 51 50 49 48 50 51 50 51 54 56 58 58 59 60 63 66 67 67 68 68 70 69 69 70 70 70 70 71 71 71 72 73 73 73 73 73 73 75 76 76 78 79 79 80 79 76 75 76 77 77 76 74 73 71 70 69 70 72 73 73 74 74 74 75
74 74 75 75 74 66 55 49 48 48 47 46 44 43 47 52 53 54 53 52 52 54 52 50 49 49 49 50 51 54 58 61 63 65 66 67 70 70 70 71 71 71 70 70 71 70 69 69 71 72 73 73 75 75 76 77 77 78 78 77 78 78 79 80 80 78 74 71 71 71 70 69 68 67 64 62 62 63 65 66 67 67 67 66 66
71 73 73 73 72 69 62 55 53 53 52 51 49 48 54 60 64 64 60 58 62 64 61 56 51 49 49 49 52 54 55 57 60 64 66 68 71 71 70 71 71 71 71 71 71 69 69 69 71 71 72 73 75 76 76 77 78 78 78 77 77 77 77 77 75 72 68 65 63 62 60 60 62 62 58 56 56 57 58 58 59 59 59 58 58
72 73 74 73 72 71 67 60 57 57 56 57 55 55 59 63 67 68 64 65 70 70 70 68 59 54 53 52 54 57 58 60 63 66 68 70 71 71 70 72 72 73 73 72 70 69 68 68 68 68 68 69 72 73 74 75 77 77 76 75 75 74 72 71 68 66 63 61 58 55 52 52 55 57 56 55 55 55 55 53 53 53 53 53 53
74 75 75 76 76 73 70 65 62 59 59 61 60 62 65 65 67 69 67 73 76 70 71 76 67 60 60 60 60 63 65 67 68 69 71 73 72 71 72 74 75 74 74 71 70 69 68 67 67 67 66 68 70 71 72 74 75 75 73 71 70 68 65 62 60 58 57 55 52 49 47 47 48 50 51 50 49 50 50 49 49 49 50 50 49
75 76 76 77 77 77 73 68 65 64 62 64 65 69 70 67 70 74 70 73 76 69 69 77 73 66 65 65 66 68 67 68 68 70 72 73 74 75 76 76 76 75 73 70 68 67 66 65 65 66 66 67 68 69 71 72 70 69 68 66 62 58 55 53 51 50 50 50 49 47 46 46 47 48 48 45 43 43 44 45 45 46 47 47 47
74 76 77 78 78 78 74 70 69 69 68 69 71 73 72 69 74 79 73 68 68 68 72 78 78 73 70 69 70 70 69 71 72 74 75 76 76 77 77 76 75 74 71 68 66 64 63 64 64 64 64 64 65 66 67 67 65 62 61 59 57 54 52 51 49 47 47 47 46 45 44 44 47 48 48 45 42 41 41 41 42 43 44 44 43
74 75 79 79 78 77 76 73 72 72 71 73 74 73 73 73 74 76 73 69 68 71 75 77 77 78 77 75 73 73 73 74 76 77 77 76 74 74 74 74 73 72 69 65 62 61 61 61 60 60 60 60 61 62 62 62 60 59 58 56 54 52 50 48 45 43 42 42 42 42 41 43 45 47 46 45 43 42 41 40 40 40 38 38 38
74 74 77 77 76 78 79 77 76 75 75 76 76 74 74 76 76 74 73 73 73 73 74 75 76 78 79 79 78 77 76 75 76 76 74 71 70 71 73 74 75 73 68 62 57 57 58 57 56 57 58 59 60 59 57 56 55 53 51 49 46 44 43 43 41 40 40 41 41 42 43 43 44 44 44 44 43 42 42 42 41 39 35 33 33
77 77 76 74 75 77 81 81 81 80 80 79 78 76 75 76 78 78 79 79 78 74 73 75 78 79 78 79 80 81 79 77 75 74 73 71 70 70 72 76 75 71 64 57 55 55 56 55 56 56 57 58 57 55 52 49 46 45 42 41 38 38 38 40 42 41 41 42 43 43 43 42 41 41 40 40 38 39 41 41 39 36 33 31 32
83 84 79 74 74 78 82 84 84 83 83 80 75 75 77 80 81 84 85 85 82 78 75 76 79 80 80 79 80 82 80 77 76 76 74 72 71 70 72 74 72 64 58 54 55 56 56 56 55 54 54 54 52 49 45 42 40 39 38 37 36 37 39 41 42 42 41 42 43 43 41 40 39 39 38 38 36 36 38 40 38 35 34 33 35
85 89 85 80 80 81 84 86 87 88 85 81 77 78 82 84 86 87 88 86 83 81 79 80 82 83 82 80 79 80 78 76 76 77 75 73 71 71 71 70 65 58 54 52 53 53 53 52 51 49 48 47 45 42 40 38 36 34 34 35 36 37 41 43 44 45 46 46 47 46 44 43 42 41 41 39 38 36 37 39 39 36 36 38 40
84 91 93 90 87 84 83 84 87 85 82 81 83 84 85 86 88 89 88 85 84 83 81 81 82 82 80 78 78 77 76 77 78 77 75 73 72 71 69 65 59 55 52 50 48 48 46 45 44 44 42 41 39 37 36 35 34 34 35 36 37 40 43 44 45 47 49 51 52 50 47 45 44 44 44 42 39 37 36 37 39 39 40 42 43
76 84 91 94 91 86 81 80 79 77 78 84 86 85 84 85 87 88 87 84 84 83 80 79 79 79 79 79 79 78 78 80 80 78 75 73 72 69 64 60 57 53 49 46 43 42 41 42 42 41 40 40 38 37 37 36 36 36 36 36 38 41 43 44 45 47 47 48 49 48 45 44 45 46 45 42 39 38 38 38 40 41 41 42 44
72 77 84 87 88 84 80 77 75 75 79 84 84 82 81 81 82 85 85 84 84 82 80 80 81 81 82 82 81 82 82 82 80 77 74 71 70 66 61 57 54 48 43 40 39 41 42 43 43 43 43 43 40 39 39 39 38 38 37 38 41 43 42 43 46 47 46 45 45 44 43 43 45 45 45 44 42 42 41 41 42 44 45 46 50
74 77 80 82 82 79 78 78 78 77 78 80 81 80 81 80 80 81 82 83 83 81 81 83 83 83 83 83 83 83 83 81 79 75 71 68 66 63 59 54 48 43 41 41 43 45 46 46 46 46 46 45 43 42 41 40 40 40 39 40 42 44 45 45 46 46 45 45 45 44 43 44 45 45 45 45 45 46 46 46 48 49 49 50 52
75 79 82 83 83 80 80 82 82 79 79 82 83 83 83 81 79 78 78 79 80 81 83 84 83 83 84 84 84 84 81 78 75 72 68 65 63 59 53 48 45 44 44 46 48 49 49 49 49 49 48 46 44 43 43 43 42 42 41 41 41 42 43 44 44 44 44 44 45 44 44 44 45 46 46 46 48 49 51 54 56 56 55 54 54
77 82 84 85 85 82 80 82 83 82 83 84 84 84 84 82 79 77 78 78 78 81 84 84 84 84 84 83 84 82 78 73 70 68 65 61 57 53 48 45 46 48 49 50 51 51 51 52 52 50 48 46 45 45 45 45 44 43 43 42 41 42 42 43 43 43 44 44 45 45 45 45 45 45 46 48 50 53 56 58 59 59 59 58 57
80 85 86 87 87 83 80 78 78 80 83 86 84 82 80 79 78 77 77 77 78 81 84 84 83 82 81 81 80 77 72 69 67 64 60 56 52 49 46 46 48 51 52 51 51 52 52 52 52 51 48 47 47 47 47 46 45 44 44 44 44 44 46 47 46 45 45 46 45 45 44 44 44 45 45 48 50 51 52 54 55 56 57 58 57
79 82 84 85 83 79 77 77 77 78 82 85 85 83 80 78 77 76 76 77 78 82 85 84 82 79 77 76 75 72 70 69 66 61 56 54 52 49 47 49 51 52 52 52 52 53 53 52 52 50 49 49 49 49 48 47 46 45 45 46 46 47 49 49 48 46 46 45 45 45 44 44 44 45 44 45 45 45 45 46 48 49 50 51 52
77 76 76 77 76 76 75 74 76 79 81 81 80 81 82 81 78 76 77 78 80 84 84 82 80 78 75 74 73 72 72 68 63 59 57 55 52 51 51 52 52 51 51 52 53 54 54 52 52 51 52 52 52 51 49 48 47 48 48 47 47 47 47 45 43 43 44 45 45 44 44 43 42 42 40 39 39 39 39 40 40 41 41 41 41
76 73 71 72 76 77 75 72 73 75 76 75 72 74 80 84 83 82 81 82 84 85 82 79 80 80 76 74 72 70 68 63 58 56 57 55 53 53 53 53 52 52 52 52 54 55 55 54 53 53 54 54 52 51 50 49 49 48 47 46 46 45 43 40 37 36 38 41 43 41 40 38 36 34 33 32 33 35 35 35 36 35 35 35 34
74 74 73 75 77 77 75 74 71 70 72 71 67 69 77 83 83 83 83 84 86 84 79 77 80 78 74 71 69 64 60 58 57 56 56 54 52 51 51 50 50 52 53 55 56 56 55 55 56 56 55 54 53 52 51 49 47 46 44 44 43 43 41 39 34 29 27 31 34 34 31 30 28 27 27 27 28 31 32 32 32 31 31 30 28
72 72 74 75 75 74 76 76 73 69 70 70 69 71 76 79 78 78 78 79 79 78 76 77 78 76 71 67 64 59 57 57 57 56 54 53 52 51 50 49 50 52 54 55 56 56 56 57 57 56 54 54 53 51 50 48 46 46 46 45 43 42 40 36 31 25 20 21 23 24 22 22 22 23 25 26 27 29 29 30 29 28 27 26 25
67 67 70 72 72 72 73 73 70 68 67 68 72 76 76 76 78 78 75 74 72 72 74 76 74 70 66 62 59 57 56 56 57 55 55 54 54 54 53 52 53 54 56 56 57 57 58 57 56 54 53 52 50 49 48 48 47 47 46 44 42 40 36 31 26 21 18 18 20 20 20 20 21 23 25 25 24 23 24 25 24 24 25 24 24
64 64 67 70 71 68 67 67 65 63 63 65 71 76 75 73 75 76 73 70 68 68 71 71 68 64 62 60 59 58 58 59 60 60 60 59 58 57 56 55 56 57 57 57 58 59 58 56 54 52 50 49 48 47 47 47 47 46 44 41 38 34 29 25 21 19 19 21 22 22 23 23 22 22 22 20 19 19 20 21 21 21 22 22 23
63 62 65 69 68 65 63 63 61 59 60 64 68 73 75 74 73 72 71 68 67 67 68 66 64 63 64 64 62 61 62 65 66 65 63 61 59 59 58 58 59 58 57 57 58 58 56 53 52 51 50 48 46 45 45 46 45 43 40 36 32 27 24 21 21 20 22 24 23 23 23 21 19 19 19 18 18 19 19 20 20 21 21 21 22
60 59 61 66 69 69 67 66 62 58 59 63 66 71 76 75 72 70 68 66 65 66 65 64 63 64 64 64 63 64 66 68 66 64 61 60 59 59 59 60 60 58 57 57 58 56 53 51 50 50 49 46 43 43 44 44 43 39 35 30 27 24 23 22 22 23 24 23 21 19 19 17 16 17 19 19 19 18 19 19 19 20 20 20 20
62 61 61 64 69 72 72 69 64 60 60 62 65 69 71 71 70 68 65 64 65 65 65 66 65 64 62 62 62 65 66 65 62 60 60 60 60 61 61 62 61 59 57 58 58 55 52 51 51 49 46 43 42 42 42 41 38 33 30 27 26 24 24 22 22 22 23 21 18 18 17 17 17 18 19 20 20 20 20 19 19 19 18 19 19
62 61 61 62 64 68 70 70 67 64 63 63 64 66 66 66 66 65 63 64 66 68 70 69 66 63 63 63 64 64 63 61 60 61 61 62 62 60 60 59 57 57 57 57 56 54 52 51 49 46 44 43 42 40 38 37 34 30 28 27 26 25 24 23 22 21 20 19 19 19 19 19 19 20 20 20 21 22 21 21 22 22 21 22 23
59 58 60 63 65 66 67 69 68 66 66 65 63 64 65 66 67 67 65 66 69 71 72 71 68 67 66 66 65 65 63 61 61 62 63 61 58 55 53 54 54 55 56 56 55 53 51 48 47 46 45 44 41 38 37 35 32 29 27 27 26 25 24 23 21 20 20 20 20 20 20 20 20 20 20 21 21 22 22 22 23 23 24 25 26
59 58 60 64 67 67 66 67 66 66 67 68 66 65 66 67 69 69 69 71 73 75 76 74 73 71 69 66 65 65 64 63 63 63 61 56 51 48 48 51 55 57 57 55 52 51 49 48 48 46 44 40 38 37 36 33 29 27 26 26 26 24 22 21 20 21 22 21 22 22 22 22 22 22 22 22 22 22 22 22 22 23 24 25 25
63 61 62 64 66 67 66 66 66 65 67 68 67 66 66 67 69 70 71 73 76 80 81 80 77 75 70 67 64 64 64 64 63 60 56 51 48 49 51 55 57 58 57 55 51 50 49 47 45 43 41 39 37 34 31 29 27 26 26 26 23 22 21 21 21 22 22 22 23 23 23 23 24 23 23 22 22 22 22 22 23 25 25 25 26
66 64 64 64 63 64 66 68 67 67 67 68 68 68 68 70 71 71 71 73 75 79 80 78 76 74 71 68 66 65 64 63 60 56 52 52 55 57 57 57 57 56 54 52 49 48 47 43 41 40 39 37 33 29 27 28 27 26 25 23 22 21 21 22 22 23 23 23 23 24 24 24 25 24 23 21 21 23 24 25 26 26 27 28 28
68 67 67 64 61 62 65 67 68 69 69 69 70 69 70 73 75 74 74 74 73 74 76 77 76 75 72 70 69 67 64 61 57 53 55 60 63 62 58 54 52 49 48 47 47 47 46 43 41 39 36 32 29 27 28 27 26 24 22 22 22 22 22 22 23 23 23 24 24 24 25 26 25 23 22 22 23 24 25 26 27 27 27 28 29
68 67 66 64 61 60 61 63 66 68 68 69 70 70 71 73 75 76 77 76 74 74 77 78 77 76 74 72 70 65 62 60 57 58 60 61 60 56 51 45 45 46 48 49 50 48 46 43 40 36 32 29 28 28 28 26 23 21 21 22 22 22 23 23 24 24 24 24 25 25 25 24 23 23 23 24 25 26 26 27 28 27 28 28 29
68 68 67 67 66 63 63 65 67 68 69 71 72 71 71 73 75 76 77 76 74 76 78 79 78 76 73 70 68 66 65 65 65 64 63 61 57 52 47 45 48 52 53 52 50 46 44 41 37 33 30 30 29 28 25 23 22 22 23 23 23 23 23 24 24 23 23 23 24 24 24 23 23 24 25 26 27 27 28 28 28 28 28 28 28
71 72 70 70 69 67 67 70 72 72 72 74 74 74 75 76 78 77 76 75 76 78 79 79 77 73 70 69 69 70 70 70 70 68 65 63 61 57 53 53 56 55 53 49 46 43 41 38 34 32 31 30 27 25 24 23 23 23 23 23 23 22 22 23 23 23 23 24 24 24 24 24 25 26 27 28 28 28 29 29 29 29 29 28 29
74 73 71 68 67 67 68 72 75 75 74 74 77 80 79 79 78 79 77 76 78 80 81 79 75 71 69 69 72 73 73 73 73 71 69 67 66 62 59 59 57 52 48 46 42 39 36 33 31 30 29 26 24 24 23 23 23 22 22 22 23 23 23 24 24 24 25 25 26 26 26 27 27 28 29 29 30 30 30 30 29 29 29 29 29
70 67 66 65 66 68 70 75 79 79 76 75 79 84 83 80 78 78 79 80 83 83 81 78 74 70 71 74 76 75 75 76 75 73 69 67 65 63 61 58 53 48 44 40 36 33 32 31 30 27 24 22 22 22 21 21 21 21 21 22 23 24 25 26 26 26 26 27 27 27 28 28 29 30 31 31 30 30 30 30 30 30 30 30 29
66 65 66 69 71 72 74 77 81 83 82 79 81 84 84 81 79 79 81 84 84 81 78 77 75 75 77 79 78 76 75 76 74 71 67 64 63 61 56 51 45 41 37 34 32 31 31 29 26 23 21 21 22 22 21 21 22 22 23 24 25 26 27 27 28 28 28 28 28 28 29 30 31 31 31 31 31 31 30 30 30 30 31 31 31
70 71 72 75 76 77 78 81 84 86 86 85 85 86 85 82 80 80 81 81 80 78 78 79 80 81 81 80 79 80 79 76 70 64 61 59 57 53 46 40 35 33 32 31 30 29 27 24 22 21 22 22 23 22 22 23 23 24 25 26 27 27 28 28 29 28 28 28 29 29 30 30 31 31 31 31 31 31 31 31 31 32 32 32 33
71 71 74 77 79 80 83 86 86 85 87 89 89 88 85 82 81 79 77 77 77 78 80 83 84 83 82 82 83 82 76 68 62 58 56 52 48 42 36 32 31 32 32 30 28 25 23 22 21 22 22 23 23 23 24 24 25 26 27 27 27 28 28 28 28 28 28 29 29 30 31 31 31 31 31 31 30 30 30 31 32 33 33 34 35
72 72 76 81 83 86 88 88 85 86 89 91 91 89 86 85 83 80 79 79 80 81 84 86 85 84 84 84 81 74 66 59 56 54 49 43 37 33 31 31 31 30 28 26 24 23 22 22 23 23 23 24 24 24 25 26 27 27 28 28 28 28 28 28 28 29 28 29 30 31 31 30 29 28 27 26 25 25 24 25 26 28 30 32 33
75 79 83 85 87 89 91 89 88 90 93 92 91 91 90 88 85 81 81 83 84 84 83 84 83 84 84 79 70 63 58 56 52 46 40 34 31 30 30 30 28 25 23 22 22 22 23 24 24 24 24 24 24 25 26 27 28 28 28 28 28 28 28 29 29 29 30 30 30 29 28 26 24 23 21 20 19 19 19 20 21 23 25 27 30
78 82 85 85 87 89 90 90 93 95 94 93 94 94 93 90 86 82 80 83 86 86 83 82 84 83 78 70 62 58 56 51 44 38 33 31 30 30 30 28 24 22 22 22 22 24 25 26 26 26 25 25 26 26 27 28 28 29 29 29 29 29 29 30 30 30 29 28 27 25 23 21 19 17 17 16 16 17 18 20 22 23 26 28 31
81 83 83 84 88 91 91 93 96 97 94 93 95 94 92 89 85 80 78 80 84 87 86 85 83 78 70 63 58 55 49 43 37 33 31 30 30 29 27 24 23 23 24 24 24 25 26 27 27 26 26 26 26 28 28 29 30 30 29 29 29 30 30 29 29 28 27 26 24 22 19 17 16 15 16 16 17 18 20 22 25 28 30 33 34
82 82 83 85 88 92 94 96 99 98 96 94 94 92 90 87 83 79 79 82 85 87 87 83 77 69 63 58 54 48 43 39 35 33 33 32 30 27 24 23 24 25 26 25 25 26 26 26 26 26 26 27 28 29 30 30 30 29 29 28 29 29 28 28 27 26 26 24 21 18 16 15 16 17 17 18 19 22 25 29 30 31 33 34 35
83 84 87 89 91 93 95 96 97 96 95 94 92 90 89 87 85 83 84 85 86 85 81 74 66 61 56 52 48 43 40 38 36 35 34 31 28 26 25 25 26 26 26 25 26 26 27 27 27 27 27 28 29 29 29 29 28 27 27 27 28 28 28 27 27 26 24 20 17 16 16 16 17 17 18 19 23 27 31 34 34 34 35 35 35
84 85 89 92 92 92 93 93 92 92 93 93 91 91 91 90 88 88 87 87 85 81 73 64 58 54 49 46 44 41 38 37 36 35 33 29 27 26 26 26 27 27 27 27 28 27 26 26 26 27 28 29 28 28 28 27 27 27 27 28 28 28 28 28 27 24 21 18 16 17 18 18 18 18 19 21 26 31 34 36 36 36 37 37 38
88 89 90 92 92 92 93 92 91 91 91 91 91 91 91 90 89 87 85 82 77 70 61 53 49 45 43 42 42 40 38 38 37 35 31 27 27 27 27 28 28 28 28 29 28 26 25 24 26 27 27 28 28 28 28 27 27 28 28 28 29 29 29 28 25 22 19 17 17 19 19 19 19 19 20 23 29 34 36 36 36 38 39 40 40